• In Netherlands
  • List of Countries
  • For 7 days
  • Water Temperature
  • Satellite Maps
  • Weather Map
  • Weather Widgets
  • user-avatar
    Login

    Hourly Weather Sunny Beach

    Today, 24 November, Friday

    Time Temperature Precipitation Wind Pressure Humidity
    00:00 +7°C° 0 mm 0 mps 740 mmHg 80%
    01:00 +7°C° 0 mm 0 mps 740 mmHg 81%
    02:00 +7°C° 0 mm 0 mps 739 mmHg 80%
    03:00 +6°C° 0 mm 0 mps 739 mmHg 81%
    04:00 +6°C° 0 mm 0 mps 739 mmHg 81%
    05:00 +6°C° 0 mm 0 mps 739 mmHg 81%
    06:00 +6°C° 0 mm 0 mps 739 mmHg 81%
    07:00 +6°C° 0 mm 0 mps 739 mmHg 80%
    08:00 +8°C° 0 mm 1 mps 739 mmHg 79%
    09:00 +9°C° 0 mm 1 mps 739 mmHg 74%
    10:00 +11°C° 0 mm 1 mps 740 mmHg 69%
    11:00 +12°C° 0 mm 1 mps 740 mmHg 64%
    12:00 +13°C° 0 mm 1 mps 740 mmHg 62%
    13:00 +14°C° 0 mm 1 mps 740 mmHg 60%
    14:00 +13°C° 0 mm 0 mps 740 mmHg 58%
    15:00 +13°C° 0 mm 1 mps 739 mmHg 64%
    16:00 +12°C° 0 mm 1 mps 739 mmHg 69%
    17:00 +11°C° 0 mm 1 mps 739 mmHg 75%
    18:00 +10°C° 0 mm 1 mps 739 mmHg 78%
    19:00 +10°C° 0 mm 1 mps 740 mmHg 81%
    20:00 +9°C° 0 mm 1 mps 740 mmHg 84%
    21:00 +9°C° 0 mm 1 mps 740 mmHg 86%
    22:00 +9°C° 0 mm 1 mps 740 mmHg 88%
    23:00 +9°C° 0 mm 1 mps 740 mmHg 89%

    Tomorrow, 25 November, Saturday

    Time Temperature Precipitation Wind Pressure Humidity
    00:00 +8°C° 0 mm 1 mps 740 mmHg 90%
    01:00 +8°C° 0 mm 1 mps 740 mmHg 90%
    02:00 +8°C° 0 mm 1 mps 740 mmHg 91%
    03:00 +8°C° 0 mm 1 mps 740 mmHg 91%
    04:00 +8°C° 0 mm 1 mps 740 mmHg 91%
    05:00 +8°C° 0 mm 1 mps 740 mmHg 91%
    06:00 +8°C° 0 mm 1 mps 740 mmHg 91%
    07:00 +8°C° 0 mm 1 mps 740 mmHg 91%
    08:00 +8°C° 0 mm 1 mps 740 mmHg 91%
    09:00 +9°C° 0 mm 1 mps 740 mmHg 85%
    10:00 +10°C° 0 mm 2 mps 740 mmHg 78%
    11:00 +13°C° 0 mm 2 mps 740 mmHg 71%
    12:00 +13°C° 0 mm 2 mps 740 mmHg 68%
    13:00 +13°C° 0 mm 3 mps 740 mmHg 65%
    14:00 +13°C° 0 mm 3 mps 739 mmHg 62%
    15:00 +12°C° 0 mm 3 mps 739 mmHg 67%
    16:00 +11°C° 0 mm 3 mps 739 mmHg 73%
    17:00 +10°C° 0 mm 3 mps 739 mmHg 78%
    18:00 +10°C° 0 mm 3 mps 739 mmHg 82%
    19:00 +9°C° 0 mm 3 mps 739 mmHg 85%
    20:00 +8°C° 0 mm 3 mps 738 mmHg 88%
    21:00 +8°C° 0 mm 2 mps 738 mmHg 89%
    22:00 +8°C° 0 mm 2 mps 738 mmHg 90%
    23:00 +8°C° 0 mm 2 mps 738 mmHg 90%

    Day after tomorrow, 26 November, Sunday

    Time Temperature Precipitation Wind Pressure Humidity
    00:00 +7°C° 0 mm 2 mps 738 mmHg 90%
    01:00 +7°C° 0 mm 2 mps 738 mmHg 89%
    02:00 +7°C° 0 mm 2 mps 738 mmHg 88%
    03:00 +7°C° 0 mm 2 mps 737 mmHg 88%
    04:00 +7°C° 0 mm 2 mps 737 mmHg 88%
    05:00 +7°C° 0 mm 2 mps 737 mmHg 88%
    06:00 +7°C° 0 mm 2 mps 737 mmHg 88%
    07:00 +7°C° 0 mm 2 mps 737 mmHg 88%
    08:00 +7°C° 0 mm 2 mps 737 mmHg 88%
    09:00 +8°C° 0 mm 2 mps 737 mmHg 82%
    10:00 +10°C° 0 mm 3 mps 737 mmHg 76%
    11:00 +12°C° 0 mm 3 mps 737 mmHg 69%
    12:00 +12°C° 0 mm 3 mps 737 mmHg 68%
    13:00 +13°C° 0 mm 4 mps 736 mmHg 67%
    14:00 +13°C° 0 mm 4 mps 736 mmHg 66%
    15:00 +13°C° 0 mm 3 mps 736 mmHg 71%
    16:00 +12°C° 0 mm 3 mps 736 mmHg 77%
    17:00 +11°C° 0 mm 3 mps 735 mmHg 82%
    18:00 +11°C° 0 mm 3 mps 735 mmHg 84%
    19:00 +10°C° 0 mm 3 mps 735 mmHg 87%
    20:00 +10°C° 0 mm 4 mps 735 mmHg 90%
    21:00 +10°C° 0 mm 4 mps 735 mmHg 91%
    22:00 +10°C° 0 mm 4 mps 735 mmHg 92%
    23:00 +8°C° 0 mm 4 mps 735 mmHg 93%

    27 November, Monday

    Time Temperature Precipitation Wind Pressure Humidity
    00:00 +8°C° 0 mm 4 mps 735 mmHg 93%
    01:00 +8°C° 0 mm 4 mps 735 mmHg 93%
    02:00 +9°C° 0 mm 3 mps 734 mmHg 94%
    03:00 +9°C° 0 mm 3 mps 734 mmHg 94%
    04:00 +9°C° 0 mm 3 mps 734 mmHg 94%
    05:00 +9°C° 0 mm 3 mps 734 mmHg 94%
    06:00 +9°C° 0.1 mm 3 mps 734 mmHg 94%
    07:00 +10°C° 0.1 mm 3 mps 734 mmHg 94%
    08:00 +10°C° 0.1 mm 3 mps 734 mmHg 94%
    09:00 +11°C° 0.1 mm 3 mps 734 mmHg 89%
    10:00 +11°C° 0.1 mm 3 mps 734 mmHg 85%
    11:00 +12°C° 0.1 mm 3 mps 734 mmHg 80%
    12:00 +13°C° 0.3 mm 3 mps 734 mmHg 79%
    13:00 +14°C° 0.3 mm 2 mps 733 mmHg 78%
    14:00 +14°C° 0.3 mm 2 mps 733 mmHg 77%
    15:00 +12°C° 1 mm 3 mps 733 mmHg 81%
    16:00 +11°C° 1 mm 4 mps 732 mmHg 84%
    17:00 +10°C° 1 mm 5 mps 732 mmHg 88%
    18:00 +9°C° 2.9 mm 5 mps 732 mmHg 89%
    19:00 +9°C° 2.9 mm 5 mps 732 mmHg 90%
    20:00 +9°C° 2.9 mm 5 mps 732 mmHg 91%
    21:00 +10°C° 1.4 mm 4 mps 732 mmHg 91%
    22:00 +10°C° 1.4 mm 4 mps 732 mmHg 92%
    23:00 +10°C° 1.4 mm 4 mps 732 mmHg 92%

    28 November, Tuesday

    Time Temperature Precipitation Wind Pressure Humidity
    00:00 +10°C° 0.4 mm 3 mps 731 mmHg 93%
    01:00 +10°C° 0.4 mm 3 mps 731 mmHg 94%
    02:00 +10°C° 0.4 mm 2 mps 731 mmHg 95%
    03:00 +9°C° 1.6 mm 2 mps 731 mmHg 95%
    04:00 +9°C° 1.6 mm 2 mps 731 mmHg 95%
    05:00 +9°C° 1.6 mm 2 mps 731 mmHg 95%
    06:00 +9°C° 1.7 mm 2 mps 731 mmHg 95%
    07:00 +8°C° 1.7 mm 3 mps 731 mmHg 94%
    08:00 +8°C° 1.7 mm 3 mps 731 mmHg 94%
    09:00 +8°C° 0.6 mm 3 mps 731 mmHg 91%
    10:00 +7°C° 0.6 mm 4 mps 731 mmHg 89%
    11:00 +6°C° 0.6 mm 5 mps 731 mmHg 86%
    12:00 +6°C° 0.1 mm 5 mps 731 mmHg 84%
    13:00 +6°C° 0.1 mm 5 mps 731 mmHg 82%
    14:00 +6°C° 0.1 mm 5 mps 731 mmHg 80%
    15:00 +6°C° 0 mm 5 mps 731 mmHg 80%
    16:00 +5°C° 0 mm 5 mps 731 mmHg 81%
    17:00 +5°C° 0 mm 5 mps 731 mmHg 81%
    18:00 +4°C° 0 mm 4 mps 731 mmHg 82%
    19:00 +4°C° 0 mm 4 mps 732 mmHg 82%
    20:00 +4°C° 0 mm 3 mps 732 mmHg 83%
    21:00 +4°C° 0 mm 4 mps 732 mmHg 83%
    22:00 +3°C° 0 mm 4 mps 732 mmHg 84%
    23:00 +3°C° 0 mm 4 mps 732 mmHg 84%

    29 November, Wednesday

    Time Temperature Precipitation Wind Pressure Humidity
    00:00 +3°C° 0 mm 4 mps 732 mmHg 85%
    01:00 +3°C° 0 mm 3 mps 732 mmHg 85%
    02:00 +2°C° 0 mm 3 mps 733 mmHg 85%
    03:00 +2°C° 0 mm 3 mps 733 mmHg 85%
    04:00 +2°C° 0 mm 3 mps 733 mmHg 85%
    05:00 +2°C° 0 mm 3 mps 733 mmHg 85%
    06:00 +3°C° 0 mm 2 mps 734 mmHg 85%
    07:00 +3°C° 0 mm 2 mps 734 mmHg 85%
    08:00 +3°C° 0 mm 2 mps 734 mmHg 85%
    09:00 +5°C° 0 mm 2 mps 735 mmHg 79%
    10:00 +6°C° 0 mm 2 mps 735 mmHg 74%
    11:00 +7°C° 0 mm 2 mps 735 mmHg 69%
    12:00 +8°C° 0 mm 2 mps 735 mmHg 67%
    13:00 +8°C° 0 mm 2 mps 735 mmHg 65%
    14:00 +9°C° 0 mm 2 mps 735 mmHg 63%
    15:00 +8°C° 0 mm 2 mps 735 mmHg 67%
    16:00 +7°C° 0 mm 2 mps 735 mmHg 71%
    17:00 +6°C° 0 mm 2 mps 735 mmHg 75%
    18:00 +6°C° 0 mm 2 mps 736 mmHg 77%
    19:00 +6°C° 0 mm 2 mps 736 mmHg 78%
    20:00 +5°C° 0 mm 2 mps 736 mmHg 80%
    21:00 +5°C° 0 mm 2 mps 736 mmHg 82%
    22:00 +5°C° 0 mm 2 mps 736 mmHg 85%
    23:00 +4°C° 0 mm 3 mps 736 mmHg 87%
    Show more